EW3582 Weather Reports


Display with metric or nautical units.
time (UTC)temp
F
wind
direction
speed
MPH
gust
MPH
rain 1hr
in
rain 24hr
in
rain mn
in
humidity
%
barometer
mb
20260507044205 48 104 3.0 10.0 0.00 0.82 0.00 85 1009.4
20260507043205 48 348 4.0 13.0 0.00 0.82 0.00 85 1009.1
20260507042706 48 98 4.0 14.0 0.00 0.82 0.00 85 1009.1
20260507042206 48 327 4.0 14.0 0.00 0.82 0.00 85 1009.1
20260507041708 48 80 4.0 11.0 0.00 0.82 0.00 86 1009.1
20260507041204 48 302 4.0 11.0 0.00 0.82 0.00 85 1009.0
20260507040706 48 353 3.0 9.0 0.00 0.82 0.00 85 1008.9
20260507040205 48 54 3.0 8.0 0.00 0.82 0.00 85 1008.9
20260507035204 49 204 3.0 12.0 0.00 0.82 0.00 85 1008.8
20260507034705 49 81 3.0 11.0 0.00 0.82 0.00 86 1008.8
20260507034205 49 37 3.0 11.0 0.00 0.82 0.00 86 1008.8
20260507033706 49 252 2.0 10.0 0.00 0.82 0.00 86 1008.9
20260507033206 49 31 2.0 9.0 0.00 0.82 0.00 86 1009.0
20260507032704 49 177 2.0 9.0 0.00 0.82 0.00 86 1008.9
20260507032207 49 319 3.0 11.0 0.00 0.82 0.00 86 1008.8
20260507031705 49 55 3.0 12.0 0.00 0.82 0.00 86 1008.8
20260507031205 49 348 3.0 12.0 0.00 0.82 0.00 86 1008.7
20260507030704 49 331 2.0 9.0 0.00 0.82 0.00 86 1008.7
20260507030204 49 8 3.0 12.0 0.00 0.82 0.00 86 1008.6
20260507025204 50 318 2.0 10.0 0.00 0.82 0.00 85 1008.6
20260507024205 50 348 2.0 9.0 0.00 0.82 0.00 85 1008.6
20260507023204 50 335 2.0 10.0 0.00 0.82 0.00 84 1008.5
20260507022204 50 64 1.0 8.0 0.00 0.82 0.00 84 1008.5
20260507021704 50 353 1.0 6.0 0.00 0.82 0.00 83 1008.4
20260507021205 50 358 1.0 8.0 0.00 0.82 0.00 83 1008.4
20260507020705 50 324 0.0 8.0 0.00 0.82 0.00 82 1008.4
20260507020207 50 52 0.0 3.0 0.00 0.82 0.00 83 1008.3
20260507015707 50 61 0.0 3.0 0.00 0.82 0.00 82 1008.3
20260507014706 50 163 0.0 3.0 0.00 0.82 0.00 82 1008.3
20260507014206 50 358 0.0 3.0 0.00 0.82 0.00 82 1008.3
20260507013205 50 48 0.0 3.0 0.00 0.82 0.00 82 1008.3
20260507012732 50 38 1.0 4.0 0.00 0.82 0.00 82 1008.2
20260507012207 50 69 2.0 7.0 0.00 0.82 0.00 82 1008.1
20260507010708 50 71 2.0 8.0 0.00 0.82 0.00 83 1008.1
20260507010207 50 281 2.0 8.0 0.00 0.82 0.00 83 1008.0
20260507005728 50 335 2.0 8.0 0.00 0.82 0.00 83 1008.1
20260507005206 50 337 1.0 8.0 0.00 0.82 0.00 83 1008.0
20260507004206 50 353 2.0 10.0 0.00 0.82 0.00 83 1007.9
20260507003706 50 358 2.0 8.0 0.00 0.82 0.00 83 1007.8
20260507003207 50 279 2.0 6.0 0.00 0.82 0.00 83 1007.8
20260507002206 51 320 1.0 6.0 0.00 0.82 0.00 82 1007.8
20260507001705 51 334 2.0 9.0 0.00 0.82 0.00 82 1007.8
20260507001206 51 30 1.0 9.0 0.00 0.82 0.00 82 1007.8
20260507000706 51 37 1.0 7.0 0.00 0.82 0.00 82 1007.9
20260507000205 51 348 1.0 7.0 0.00 0.82 0.00 82 1007.8
20260506235717 50 344 0.0 4.0 0.00 0.82 0.00 82 1007.8
20260506235206 51 91 0.0 3.0 0.00 0.82 0.00 83 1007.7
20260506234705 51 68 0.0 3.0 0.00 0.82 0.00 83 1007.6
20260506234206 51 322 1.0 4.0 0.00 0.82 0.00 83 1007.7
20260506233205 51 341 2.0 10.0 0.00 0.82 0.00 83 1007.6
20260506232712 51 73 2.0 10.0 0.00 0.82 0.00 83 1007.7
20260506232207 51 287 2.0 9.0 0.00 0.82 0.00 83 1007.8
20260506231706 51 324 1.0 5.0 0.00 0.82 0.00 83 1007.8
20260506230207 51 12 2.0 12.0 0.00 0.82 0.00 82 1007.7
20260506225717 51 343 1.0 12.0 0.00 0.82 0.00 82 1007.7
20260506225205 51 46 1.0 10.0 0.00 0.82 0.00 82 1007.4
20260506224705 51 331 1.0 5.0 0.00 0.82 0.00 82 1007.4
20260506224205 51 44 1.0 5.0 0.00 0.82 0.00 82 1007.6
20260506223705 52 50 0.0 3.0 0.00 0.82 0.00 82 1007.6
20260506223207 52 344 0.0 3.0 0.00 0.82 0.00 82 1007.4
20260506222705 52 358 1.0 5.0 0.00 0.82 0.00 82 1007.3
20260506222207 52 353 1.0 8.0 0.00 0.82 0.00 82 1007.3
20260506221709 52 8 1.0 8.0 0.00 0.82 0.00 82 1007.1
20260506221205 52 284 1.0 4.0 0.00 0.82 0.00 82 1007.1
20260506220706 52 318 1.0 8.0 0.00 0.82 0.00 82 1007.0
20260506220208 52 71 1.0 8.0 0.00 0.82 0.00 82 1007.0
20260506215707 52 313 2.0 11.0 0.00 0.82 0.82 82 1007.0
20260506215206 52 348 1.0 11.0 0.00 0.82 0.82 82 1007.0
20260506214707 52 56 1.0 5.0 0.00 0.82 0.82 81 1007.0
20260506214206 52 270 1.0 5.0 0.00 0.82 0.82 81 1007.0
20260506212704 51 88 1.0 9.0 0.00 0.82 0.82 81 1006.8
20260506212203 51 245 1.0 9.0 0.00 0.82 0.82 80 1006.8
20260506211703 51 35 1.0 7.0 0.00 0.82 0.82 79 1006.7
20260506210705 51 63 1.0 6.0 0.00 0.82 0.82 77 1006.7
20260506210203 51 67 0.0 2.0 0.00 0.82 0.82 76 1006.6
20260506205704 51 99 0.0 2.0 0.00 0.82 0.82 76 1006.5
20260506205204 51 44 0.0 3.0 0.00 0.82 0.82 75 1006.4
20260506204705 51 43 0.0 3.0 0.00 0.82 0.82 75 1006.4
20260506204203 51 54 0.0 2.0 0.00 0.82 0.82 74 1006.4
20260506203703 51 98 1.0 7.0 0.00 0.82 0.82 73 1006.5
20260506203204 51 52 0.0 7.0 0.00 0.82 0.82 72 1006.4
20260506202704 51 327 0.0 2.0 0.00 0.82 0.82 71 1006.3
20260506202203 52 328 0.0 2.0 0.00 0.82 0.82 70 1006.2
20260506201703 52 327 0.0 1.0 0.00 0.82 0.82 70 1006.0
20260506201204 52 326 0.0 2.0 0.00 0.82 0.82 69 1006.0
20260506200704 53 281 0.0 2.0 0.00 0.82 0.82 68 1005.9
20260506200203 53 274 0.0 0.0 0.00 0.82 0.82 68 1006.0
20260506195706 53 272 0.0 2.0 0.00 0.82 0.82 68 1006.1
20260506195203 53 272 0.0 3.0 0.00 0.82 0.82 68 1005.9
20260506194704 53 240 0.0 3.0 0.00 0.82 0.82 68 1005.9
20260506193704 53 239 0.0 0.0 0.00 0.82 0.82 68 1006.0
20260506193203 53 238 0.0 0.0 0.01 0.82 0.82 68 1006.0
20260506192703 53 239 0.0 1.0 0.01 0.82 0.82 69 1006.1
20260506192203 54 237 0.0 1.0 0.02 0.83 0.82 69 1005.9
20260506191703 54 243 0.0 1.0 0.04 0.83 0.82 69 1005.9
20260506191204 54 247 0.0 1.0 0.06 0.83 0.82 69 1006.0
20260506190708 54 353 0.0 1.0 0.07 0.83 0.82 69 1005.9
20260506190203 54 353 0.0 0.0 0.09 0.83 0.82 70 1006.0
20260506185704 54 245 0.0 0.0 0.09 0.83 0.82 70 1006.0
20260506184205 54 245 1.0 4.0 0.12 0.83 0.82 70 1005.5
20260506183703 54 353 2.0 6.0 0.13 0.83 0.81 71 1005.4
20260506183206 54 353 1.0 6.0 0.12 0.82 0.81 71 1005.3
20260506182704 54 358 0.0 0.0 0.12 0.82 0.80 72 1005.1
20260506181705 54 358 0.0 1.0 0.09 0.79 0.78 74 1005.1
20260506181203 54 358 0.0 1.0 0.08 0.77 0.76 75 1004.9
20260506180706 54 358 0.0 3.0 0.06 0.76 0.75 75 1004.8
20260506180203 54 358 1.0 3.0 0.05 0.74 0.73 76 1004.7
20260506175704 54 358 1.0 2.0 0.04 0.73 0.72 77 1004.5
20260506175203 54 358 1.0 2.0 0.02 0.72 0.71 78 1004.4
20260506174706 55 358 1.0 3.0 0.02 0.72 0.70 80 1004.2
20260506174205 55 358 2.0 3.0 0.02 0.75 0.70 81 1003.9
20260506173706 55 6 1.0 3.0 0.01 0.74 0.69 81 1003.7
20260506173205 56 24 0.0 3.0 0.01 0.74 0.69 82 1003.7
20260506172706 56 32 0.0 3.0 0.01 0.74 0.69 82 1003.6
20260506172206 56 33 0.0 3.0 0.00 0.73 0.69 82 1003.7
20260506171707 57 34 0.0 2.0 0.00 0.73 0.69 83 1003.6
20260506171205 57 34 0.0 2.0 0.00 0.73 0.69 83 1003.6
20260506170704 58 34 0.0 2.0 0.00 0.73 0.69 84 1003.6
20260506170204 58 91 0.0 3.0 0.00 0.73 0.69 84 1003.5
20260506165706 58 94 0.0 3.0 0.00 0.73 0.69 84 1003.4
20260506165209 59 112 0.0 0.0 0.00 0.73 0.69 83 1003.4
20260506164707 59 113 0.0 1.0 0.00 0.73 0.69 84 1003.5
20260506164205 59 112 0.0 1.0 0.00 0.73 0.69 84 1003.5
20260506163704 60 114 0.0 2.0 0.00 0.73 0.69 83 1003.4
20260506163204 61 113 1.0 3.0 0.00 0.73 0.69 82 1003.5
20260506162705 61 116 1.0 6.0 0.00 0.73 0.69 75 1003.5
20260506161704 62 123 1.0 4.0 0.00 0.73 0.69 73 1003.6
20260506161205 62 91 2.0 4.0 0.00 0.73 0.69 74 1003.5
20260506160706 62 109 2.0 5.0 0.00 0.73 0.69 73 1003.6
20260506160204 62 137 2.0 5.0 0.00 0.73 0.69 74 1003.7
20260506155704 62 95 1.0 5.0 0.00 0.73 0.69 73 1003.8
20260506155218 63 110 2.0 6.0 0.00 0.73 0.69 71 1003.8
20260506154705 64 101 2.0 6.0 0.00 0.73 0.69 70 1003.9
20260506153708 64 100 4.0 8.0 0.00 0.73 0.69 71 1004.1
20260506153205 64 114 4.0 8.0 0.00 0.73 0.69 72 1003.9
20260506152705 63 116 5.0 9.0 0.00 0.73 0.69 71 1004.1
20260506152205 64 83 5.0 10.0 0.00 0.73 0.69 73 1004.1
20260506151204 62 123 3.0 9.0 0.00 0.73 0.69 79 1004.2
20260506150707 62 94 1.0 8.0 0.00 0.73 0.69 81 1004.3
20260506150205 61 135 1.0 3.0 0.00 0.73 0.69 83 1004.3
20260506145705 60 75 1.0 3.0 0.00 0.73 0.69 83 1004.4
20260506145204 60 58 3.0 8.0 0.00 0.73 0.69 83 1004.4
20260506144706 60 91 2.0 8.0 0.00 0.73 0.69 83 1004.5
20260506144204 60 80 2.0 7.0 0.01 0.73 0.69 83 1004.6
20260506143205 60 62 3.0 8.0 0.01 0.73 0.69 82 1004.6
20260506141705 60 121 5.0 9.0 0.02 0.73 0.69 81 1004.7
20260506141205 61 87 4.0 9.0 0.03 0.73 0.69 81 1004.7
20260506140705 61 95 3.0 7.0 0.03 0.73 0.69 82 1004.8
20260506140204 61 116 3.0 8.0 0.04 0.73 0.69 82 1004.7
20260506135704 60 112 5.0 8.0 0.05 0.73 0.69 83 1004.7
20260506135204 60 112 5.0 9.0 0.06 0.73 0.69 83 1004.7
20260506134706 60 101 4.0 11.0 0.06 0.73 0.69 83 1004.9
20260506134206 60 85 5.0 11.0 0.06 0.72 0.68 84 1004.9
20260506133704 60 100 6.0 11.0 0.07 0.72 0.68 84 1005.0
20260506133203 60 102 5.0 11.0 0.08 0.72 0.68 84 1004.9
20260506132704 60 79 4.0 9.0 0.08 0.72 0.67 84 1004.9
20260506132204 59 66 5.0 9.0 0.09 0.72 0.67 84 1005.0
20260506131705 59 141 5.0 11.0 0.13 0.71 0.66 84 1004.9
20260506131204 58 100 4.0 11.0 0.35 0.70 0.65 84 1004.9
20260506130705 58 103 5.0 8.0 0.57 0.70 0.65 83 1005.0
20260506130205 58 74 4.0 8.0 0.65 0.69 0.65 82 1005.0
20260506125707 58 88 2.0 7.0 0.64 0.69 0.64 73 1005.0
20260506124706 57 66 1.0 4.0 0.62 0.67 0.62 66 1005.2
20260506124205 55 76 1.0 4.0 0.61 0.66 0.61 69 1005.3
20260506123705 53 353 0.0 3.0 0.61 0.65 0.61 74 1005.4
20260506123203 53 353 0.0 3.0 0.60 0.65 0.60 79 1005.5
20260506122703 52 27 3.0 9.0 0.59 0.64 0.59 82 1005.5
20260506121704 56 97 3.0 12.0 0.53 0.57 0.50 83 1005.4
20260506121203 60 162 3.0 8.0 0.30 0.35 0.28 83 1005.8
20260506120700 62 75 5.0 8.0 0.07 0.12 0.04 76 1005.4
20260506115648 64 110 5.0 7.0 0.00 0.05 0.00 67 1005.3
20260506114640 66 96 5.0 10.0 0.00 0.05 0.00 64 1005.3
20260506114140 66 108 4.0 7.0 0.00 0.05 0.00 65 1005.3
20260506113640 65 93 4.0 9.0 0.00 0.05 0.00 67 1005.5
20260506113141 66 77 3.0 9.0 0.00 0.05 0.00 67 1005.4
20260506112642 65 59 2.0 7.0 0.00 0.05 0.00 64 1005.5
20260506111636 64 92 3.0 7.0 0.00 0.05 0.00 65 1005.6
20260506111136 65 62 3.0 7.0 0.00 0.05 0.00 63 1005.6
20260506110638 65 81 3.0 7.0 0.00 0.05 0.00 66 1005.6
20260506110136 65 67 2.0 6.0 0.00 0.05 0.00 64 1005.6
20260506105633 65 112 2.0 8.0 0.00 0.05 0.00 64 1005.8
20260506105135 65 68 2.0 8.0 0.00 0.05 0.00 63 1005.8
20260506104133 65 33 2.0 7.0 0.00 0.05 0.00 66 1005.9
20260506102632 63 107 2.0 4.0 0.00 0.05 0.00 67 1006.0
20260506102132 63 126 1.0 4.0 0.00 0.05 0.00 66 1006.1
20260506101629 63 82 2.0 8.0 0.00 0.05 0.00 67 1006.0
20260506101123 63 94 3.0 8.0 0.00 0.05 0.00 65 1006.1
20260506100617 63 95 2.0 7.0 0.00 0.05 0.00 66 1006.2
20260506100120 63 80 3.0 9.0 0.00 0.05 0.00 69 1006.3
20260506095607 63 348 5.0 9.0 0.00 0.05 0.00 67 1006.3
20260506095107 63 67 4.0 9.0 0.00 0.05 0.00 71 1006.3
20260506094606 63 67 5.0 10.0 0.00 0.05 0.00 69 1006.4
20260506093608 63 82 2.0 9.0 0.00 0.05 0.00 72 1006.6
20260506093108 63 73 2.0 8.0 0.00 0.05 0.00 71 1006.5
20260506092608 63 53 3.0 8.0 0.00 0.05 0.00 72 1006.5
20260506092108 63 76 5.0 9.0 0.00 0.05 0.00 70 1006.5
20260506091107 62 76 6.0 9.0 0.00 0.05 0.00 75 1006.5
20260506090609 62 110 4.0 8.0 0.00 0.05 0.00 72 1006.5
20260506090122 62 103 2.0 8.0 0.00 0.05 0.00 72 1006.6
20260506085607 61 85 1.0 4.0 0.00 0.05 0.00 72 1006.6
20260506085110 61 85 2.0 4.0 0.00 0.05 0.00 72 1006.6
20260506084610 61 60 2.0 4.0 0.00 0.05 0.00 74 1006.6
20260506084106 61 107 3.0 7.0 0.00 0.05 0.00 74 1006.6
20260506083605 60 68 4.0 7.0 0.00 0.05 0.00 77 1006.6
20260506083108 60 92 3.0 7.0 0.00 0.05 0.00 75 1006.6
20260506081627 59 94 4.0 10.0 0.00 0.05 0.00 77 1006.8
20260506081106 59 75 4.0 10.0 0.00 0.05 0.00 76 1006.7
20260506080603 60 94 3.0 9.0 0.00 0.05 0.00 77 1006.7
20260506080116 60 100 0.0 6.0 0.00 0.05 0.00 76 1006.7
20260506073059 59 294 2.0 7.0 0.00 0.05 0.00 76 1006.6
20260506072558 58 73 2.0 9.0 0.00 0.05 0.00 76 1006.7
20260506072059 58 15 2.0 9.0 0.00 0.05 0.00 77 1006.7
20260506071600 58 106 2.0 6.0 0.00 0.05 0.00 78 1006.8
20260506071100 57 31 2.0 5.0 0.00 0.05 0.00 78 1006.8
20260506070600 57 85 2.0 9.0 0.00 0.05 0.00 79 1006.8
20260506070114 57 331 3.0 10.0 0.00 0.05 0.00 79 1006.7
20260506062047 55 320 1.0 5.0 0.00 0.05 0.00 81 1006.8
20260506061544 55 353 1.0 6.0 0.00 0.05 0.00 83 1006.6
20260506061044 55 250 2.0 9.0 0.00 0.05 0.00 82 1006.6
20260506051038 53 75 1.0 6.0 0.00 0.05 0.00 84 1006.8
20260506050538 53 72 1.0 6.0 0.00 0.05 0.00 83 1006.8
20260506045038 53 4 1.0 10.0 0.00 0.05 0.00 83 1006.7